This is the latest recevied weather packets stored in our database for station/object KD9NSC. If no packets are shown the sender has not sent any weather packets the latest 10 day(s).
| Time | Temp. | Humidity | Pressure | Rain* | Wind** | Luminosity | Snow |
|---|---|---|---|---|---|---|---|
| 1777907049 | 24.44° C | 45% | 1004.9 hPa | 0 mm | - | 395 W/m² | - |
| 1777906746 | 25° C | 44% | 1005 hPa | 0 mm | - | 418 W/m² | - |
| 1777906443 | 25° C | 46% | 1005.2 hPa | 0 mm | - | 319 W/m² | - |
| 1777906140 | 23.89° C | 46% | 1005 hPa | 0 mm | - | 400 W/m² | - |
| 1777905836 | 24.44° C | 47% | 1005.2 hPa | 0 mm | - | 390 W/m² | - |
| 1777905533 | 23.89° C | 46% | 1005.1 hPa | 0 mm | - | 290 W/m² | - |
| 1777905230 | 23.89° C | 48% | 1005.3 hPa | 0 mm | - | 368 W/m² | - |
| 1777904927 | 22.78° C | 51% | 1005.5 hPa | 0 mm | - | 358 W/m² | - |
| 1777904624 | 23.33° C | 49% | 1005.7 hPa | 0 mm | - | 295 W/m² | - |
| 1777904322 | 22.78° C | 49% | 1005.5 hPa | 0 mm | - | 335 W/m² | - |
| 1777904019 | 22.22° C | 50% | 1005.7 hPa | 0 mm | - | 164 W/m² | - |
| 1777903715 | 21.67° C | 52% | 1005.9 hPa | 0 mm | - | 313 W/m² | - |
| 1777903411 | 21.67° C | 54% | 1005.9 hPa | 0 mm | - | 260 W/m² | - |
| 1777903108 | 21.67° C | 57% | 1006 hPa | 0 mm | - | 244 W/m² | - |
| 1777902804 | 20.56° C | 55% | 1005.9 hPa | 0 mm | - | 149 W/m² | - |
| 1777902502 | 20° C | 57% | 1006 hPa | 0 mm | - | 160 W/m² | - |
| 1777902198 | 20° C | 61% | 1006 hPa | 0 mm | - | 96 W/m² | - |
| 1777901897 | 19.44° C | 61% | 1006.2 hPa | 0 mm | - | 238 W/m² | - |
| 1777901594 | 18.89° C | 62% | 1006.1 hPa | 0 mm | - | 228 W/m² | - |
| 1777901291 | 18.33° C | 63% | 1006.1 hPa | 0 mm | - | 195 W/m² | - |
| 1777900989 | 17.78° C | 65% | 1006 hPa | 0 mm | - | 207 W/m² | - |
| 1777900686 | 17.78° C | 66% | 1006 hPa | 0 mm | - | 59 W/m² | - |
| 1777900383 | 17.22° C | 68% | 1006.2 hPa | 0 mm | - | 97 W/m² | - |
| 1777900080 | 16.67° C | 67% | 1006.1 hPa | 0 mm | - | 160 W/m² | - |
| 1777899776 | 16.11° C | 70% | 1006.2 hPa | 0 mm | - | 160 W/m² | - |
* Rain latest hour (hover to see other rain measurements)
** Current wind speed in m/s (hover to see current wind gust speed)